Location: Arrondissement Brussel
(50.8379°N, 4.3687°E)
Time: 06:26:22
(UTC+00:00)

Daily predictions for brighter satellites

Satellite Brightness Start Highest point End
(mag) Time Altitude Azimuth Time Altitude Azimuth Time Altitude Azimuth
Cosmos 2173 Rocket 4.0 16:23:42 10° S 16:29:55 86° E 16:36:05 10° N
SMAP 3.3 16:25:47 10° SE 16:30:15 49° ENE 16:34:45 10° N
Cosmos 1484 Rocket 2.9 16:31:54 10° S 16:35:23 70° WSW 16:38:55 10° NNW
Cosmos 2227 Rocket 4.4 16:32:32 10° WNW 16:35:35 14° NNW 16:38:38 10° N
USA 215 3.6 16:30:39 10° SE 16:37:11 73° SW 16:43:45 10° WNW
CORIOLIS 4.2 16:32:30 10° SSE 16:37:47 64° ENE 16:43:05 10° N
Cosmos 2082 Rocket 3.2 16:33:35 10° NNW 16:38:19 27° NE 16:43:01 10° E
Cosmos 1802 Rocket 4.1 16:35:30 10° S 16:41:55 78° E 16:48:22 10° NNE
CBERS-1 4.3 16:37:43 10° S 16:42:49 75° WSW 16:47:58 10° NNW
Landsat 7 4.0 16:38:53 10° SE 16:43:20 47° ENE 16:47:48 10° N
SPOT 1/Viking Rocket 4.4 16:40:15 10° ESE 16:44:35 28° ENE 16:48:57 10° N
Cosmos 2278 Rocket 3.5 16:41:14 10° SE 16:45:06 19° E 16:48:59 10° ENE
Cosmos 1782 Rocket 3.9 16:40:55 10° SSE 16:45:07 44° E 16:49:21 10° NNE
Cosmos 1943 Rocket 3.5 16:42:02 10° SE 16:46:01 20° E 16:49:59 10° NE
Cosmos 2084 Rocket 3.8 16:42:46 10° SSW 16:46:47 47° SE 16:50:44 11° NE
Cosmos 2344 4.2 16:40:46 10° NW 16:47:38 39° NNE 16:55:54 10° E
IRS-1C 4.1 16:45:03 10° SSE 16:50:18 64° ENE 16:55:35 10° N
Cosmos 1300 Rocket 3.6 16:48:26 10° S 16:52:44 57° E 16:57:03 10° NNE
ATLAS 5 CENTAUR R/B 1.7 16:50:08 10° NW 16:54:21 86° SW 16:59:38 10° SE
Tsikada Rocket 4.0 16:51:09 10° N 16:57:37 78° E 17:03:59 10° SSE
ATLAS CENTAUR R/B 1.8 16:54:45 10° WSW 16:58:05 43° NW 17:01:25 10° NNE
Cosmos 1908 Rocket 3.8 16:55:16 10° SSW 16:59:41 73° WNW 17:04:09 10° N
Iridium 4 Rocket 3.9 16:54:52 10° SSW 16:59:57 64° W 17:04:38 10° N
BREEZE-M DEB (TANK) 3.7 16:59:15 10° SSW 17:01:23 28° SE 17:04:22 14° E
Cosmos 1975 Rocket 3.0 16:57:45 10° N 17:02:03 59° ENE 17:06:21 10° SSE
Cosmos 2016 Rocket 4.1 16:57:36 10° S 17:03:55 89° W 17:10:20 10° N
SL-16 R/B 2.9 16:57:40 10° NNE 17:03:56 71° WNW 17:10:09 10° SSW
COSMOS 2406 4.3 17:00:20 10° NNW 17:04:59 25° NE 17:08:32 14° E
MOS 1 Rocket 3.3 17:02:52 10° SE 17:06:58 46° ENE 17:11:16 10° N
Cosmos 2263 Rocket 4.4 17:04:27 10° WNW 17:07:23 14° NNW 17:10:21 10° N
Cosmos 1844 Rocket 4.2 17:04:56 10° WSW 17:09:55 32° NW 17:14:56 10° NNE
UNK 3.7 17:05:26 10° NNE 17:10:04 86° ESE 17:14:41 10° SSW
Cosmos 921 Rocket 3.6 17:06:01 10° SW 17:10:19 59° WNW 17:14:43 10° NNE
COSMO-SKYMED 1 3.8 17:10:37 17° ENE 17:11:46 19° E 17:14:46 10° SE
SKYMED 2 4.5 17:09:00 10° NE 17:12:46 28° E 17:16:31 10° SSE
SJ-6F 4.2 17:09:15 10° SSE 17:13:07 63° ENE 17:17:01 10° N
USA 281 4.2 17:09:14 14° E 17:13:34 27° NE 17:18:52 10° NNW
BREEZE-M DEB (TANK) 3.0 17:12:08 10° SW 17:14:27 34° SE 17:17:12 18° E
ISS -2.0 17:12:56 10° S 17:15:23 19° SE 17:16:32 16° ESE
Cosmos 1763 Rocket 3.4 17:11:43 10° NNW 17:16:57 66° ENE 17:22:04 10° SE
CZ-2D R/B 2.9 17:14:20 10° S 17:17:29 76° WSW 17:20:40 10° NNW
Cosmos 540 Rocket 3.5 17:12:29 10° NNW 17:17:35 57° ENE 17:22:36 10° SE
Geosat FO 3.9 17:14:44 10° SSE 17:17:38 85° ENE 17:20:32 10° NNW
CZ-4C R/B 3.0 17:14:22 10° W 17:18:48 41° NNW 17:24:07 12° NE
Cosmos 1833 Rocket 3.5 17:15:04 10° NW 17:20:36 56° WSW 17:26:06 10° S
Cosmos 1140 Rocket 3.4 17:19:30 10° SSW 17:24:41 80° ESE 17:29:51 10° NNE
Cosmos 1269 Rocket 4.0 17:19:53 10° SSW 17:25:09 89° ESE 17:30:28 10° NNE
Helios 1A Rocket 3.9 17:28:22 21° ESE 17:28:22 21° ESE 17:30:18 10° SSE
Cosmos 1602 3.7 17:27:53 10° N 17:30:33 35° ENE 17:30:33 35° ENE
RESURS DK-1 2.2 17:26:50 10° NNW 17:30:51 71° NE 17:34:50 10° SE
SL-12 R/B(2) 4.5 17:23:18 10° SSW 17:30:59 55° ESE 17:39:17 14° NE
Nadezhda 4 Rocket 4.3 17:25:54 10° N 17:31:55 43° ENE 17:37:50 10° SE
Cosmos 2251 Rocket 4.1 17:33:11 10° SSE 17:37:53 34° ESE 17:39:54 25° ENE
Cosmos 1862 3.7 17:35:42 10° N 17:38:34 33° NE 17:38:34 33° NE
IRS-P3 4.5 17:38:30 10° S 17:43:47 68° WSW 17:49:08 10° NNW
Geosat 4.1 17:41:31 17° SE 17:45:17 55° NE 17:50:11 10° NNW
YAOGAN 1 2.5 17:41:27 10° SSE 17:45:37 58° ENE 17:49:49 10° N
PSLV R/B 3.4 17:42:32 10° SSE 17:46:30 56° ENE 17:50:28 10° N
Timation 2 Rocket 4.2 17:42:56 10° SSW 17:49:42 64° ESE 17:55:09 17° NE
Resurs 1-3 3.5 17:48:17 10° SSE 17:52:32 63° ENE 17:56:48 10° N
CZ-2D R/B 3.4 17:49:13 10° SSE 17:53:21 89° W 17:57:35 10° NNW
Cosmos 841 Rocket 3.9 17:49:22 10° NNW 17:54:22 41° ENE 17:55:38 35° E
Cosmos 489 Rocket 4.5 17:49:30 10° NNW 17:55:42 57° ENE 18:00:28 17° SE
Cosmos 1891 Rocket 4.5 17:50:00 10° S 17:56:27 82° E 18:02:57 10° NNE
ARIANE 5 R/B 4.1 17:54:07 10° SSW 17:58:41 36° W 18:03:18 10° NNW
SJ 16-02 2.8 17:55:50 10° SSE 17:57:46 22° SE 17:57:46 22° SE
Cosmos 2058 2.6 17:55:58 10° N 17:59:57 83° E 18:03:56 10° SSE
Okean 2 Rocket 4.0 17:55:52 10° SSE 17:58:32 30° SE 17:58:32 30° SE
Resurs 01 Rocket 2.6 18:03:53 30° NNE 18:03:53 30° NNE 18:06:37 10° N
ATLAS 2AS CENTAUR R/B 3.3 17:56:41 10° NW 18:03:00 38° NNE 18:05:02 31° ENE
Cosmos 1536 Rocket 3.4 17:59:20 10° N 18:03:46 68° ENE 18:08:10 10° SSE
Cosmos 44 Rocket 3.4 18:01:57 10° SSW 18:06:34 52° ESE 18:07:12 48° E
Cosmos 468 Rocket 3.9 18:01:20 10° NNW 18:06:35 89° NE 18:11:45 10° SSE
SL-19 R/B 4.0 18:04:34 10° SSE 18:09:48 86° WSW 18:15:04 10° NNW
IRAS Rocket 4.3 18:05:03 10° SSE 18:10:36 77° WSW 18:16:10 10° NNW
YAOGAN 3 4.5 18:12:10 59° NE 18:12:10 59° NE 18:16:03 10° N
Cosmos 1812 3.5 18:09:19 10° SSW 18:11:01 31° SSW 18:11:01 31° SSW
Cosmos 1190 Rocket 4.0 18:09:51 10° S 18:15:01 56° ESE 18:15:50 50° ENE
Aureole 3 Rocket 2.8 18:13:16 10° SSW 18:16:00 55° WSW 18:16:00 55° WSW
Cosmos 1869 4.2 18:13:26 10° SSW 18:16:48 41° WNW 18:19:17 16° N
Cosmos 1464 Rocket 3.9 18:12:53 10° S 18:19:10 78° E 18:25:25 10° NNE
Cosmos 2082 Rocket 2.3 18:17:21 10° NNW 18:22:59 76° WSW 18:27:17 18° SSE
SPOT 1/Viking Rocket 4.3 18:18:37 10° S 18:23:39 53° W 18:28:45 10° NNW
CARTOSAT-1 4.1 18:27:27 45° N 18:27:27 45° N 18:30:26 10° N
Cosmos 2278 Rocket 2.2 18:22:48 10° SSW 18:28:28 83° WNW 18:31:01 35° NNE
Cosmos 407 Rocket 3.9 18:23:37 10° SW 18:28:45 61° WNW 18:31:52 23° NNE
Cosmos 1954 Rocket 4.1 18:23:53 10° S 18:28:34 57° SE 18:28:34 57° SE
Cosmos 1943 Rocket 2.2 18:23:29 10° SSW 18:29:07 79° WNW 18:31:40 34° NNE
Cosmos 2034 Rocket 3.9 18:24:50 10° S 18:30:57 66° E 18:37:10 10° NNE
ATLAS CENTAUR R/B 3.6 18:32:23 10° NW 18:33:59 13° NNW 18:34:03 13° NNW
Cosmos 2151 Rocket 3.9 18:37:52 10° SSW 18:42:19 66° WNW 18:43:05 55° NNW
Cosmos 1092 Rocket 3.8 18:40:21 10° N 18:46:38 73° ENE 18:47:14 68° ESE
COSMO-SKYMED 1 3.2 18:46:58 48° NW 18:47:22 50° WNW 18:51:21 10° SW
COSMOS 2406 3.1 18:44:16 10° NNW 18:49:59 84° WSW 18:50:36 71° S
ISS -1.1 18:48:24 10° WSW 18:49:28 19° WSW 18:49:28 19° WSW
Cosmos 2026 Rocket 3.8 18:49:58 10° N 18:56:06 88° WSW 18:57:33 55° S
USA 281 3.1 18:56:07 62° SE 18:57:21 86° ENE 19:03:59 10° NNW
Meteor 2-3 Rocket 3.8 18:56:40 10° NNW 19:02:24 74° W 19:03:03 66° SSW
Cosmos 2344 3.8 18:55:13 10° NW 19:03:03 88° NE 19:06:06 50° SE
CZ-4C R/B 3.8 19:04:08 10° WNW 19:08:38 25° N 19:09:04 25° N
Cosmos 2251 Rocket 4.5 19:14:56 10° SW 19:19:58 44° WNW 19:20:21 43° NW
Cosmos 2297 Rocket 4.5 19:17:28 10° N 19:18:34 13° N 19:18:34 13° N
SJ 16-02 4.1 19:33:46 10° SW 19:34:22 13° WSW 19:34:22 13° WSW
Resurs 01 Rocket 4.1 19:41:18 18° NW 19:41:18 18° NW 19:42:49 10° NNW
ATLAS 2AS CENTAUR R/B 3.4 19:47:46 10° NW 19:52:28 48° NW 19:52:28 48° NW
Cosmos 2278 Rocket 4.3 20:09:03 10° W 20:12:52 22° NW 20:12:52 22° NW
Cosmos 1943 Rocket 4.3 20:09:33 10° W 20:13:11 21° NW 20:13:11 21° NW
